OBJECT AZ, 62656

Orbit data source: Space-Track

You're viewing an Uncataloged Satellite

Recently launched and/or uncataloged satellites may have evolving metadata. Metadata may include but not limited to: Owner, Maufacturer, Bus, Motor, and Mission.

OBJECT AZ, 62656 is a satellite in SSO that was launched on Tue, 14 Jan 2025 UTC via an FALCON 9 launch vehicle from the Air Force Western Test Range (AFWTR). Unknown objects in Earth's orbit typically refer to objects detected orbiting the Earth but have not yet been identified or cataloged. These objects could be anything from previously untracked satellites, spent rocket stages, debris from satellite collisions, or even natural meteoroids temporarily captured by Earth's gravity.

Loading next visibility...
Identifier
62656, 2025-009AZ
Orbit
SSO
Country
Flag of TBDTBD
Related business
None
Manufacturer
Unknown
Mission
Operational Civil Technology
Bus & Motor
Unknown
Mass
Unknown
Launch date (UTC)
2025-01-14 (1 year ago)
Launch vehicle
FALCON 9
Launch site
Air Force Western Test Range (AFWTR)
Object type
Unknown
Shape & HBR
Box, 0.1 m
Radar Cross Section
0.035 m², Small (<0.1 m²)

Expand to show TLE details & history
Last TLE update: 10 hours ago

TLE from 10 hours ago
0 OBJECT AZ
1 62656U 25009AZ  26131.96600147  .00008356  00000-0  27212-3 0  9996
2 62656  97.3936 215.0851 0002677 107.2953 252.8582 15.32096663 73479
Epoch: 2026-05-11T23:11Z
TLE epoch observation values (Epoch: 2026-05-11T23:11:02.527Z)
Latitude
0.00003°
Longitude
-2.42259°
Altitude
473.206 km
Speed
7.629 km/s
True Right ascension
14h 20m 20s
True Declination
0° 00' 00"
Sunlit
Object was in full shadow at epoch
Visualization orbit readout
Latitude
Unknown
Longitude
Unknown
Altitude
Unknown
Speed
Unknown
Apparent Right ascension
Unknown
Apparent Declination
Unknown
Sunlit
N/A
Visualization observer readout
Local Sidereal Time
17:41:11
Azimuth
Unknown
Elevation
Unknown
Doppler factor
Unknown
Orbital elements
Apogee altitude
468.339 km
Perigee altitude
464.675 km
Semi-major axis
6,844.644 km
Eccentricity
0.00027
Inclination
97.3936°
RAAN
215.0851°
Arg. of periapsis
107.2953°
True anomaly
252.82889°
Mean anomaly
252.8582°
Eccentric anomaly
252.84354°
Mean motion
3.83281 °/min
Orbital period
93.93 mins
BSTAR
0.00027212
Loading maneuver chart data...
Computing Atmospheric mass density...
Loading historical data...
Loading historical data...
Loading historical data...
Loading historical data...
Loading historical data...
Loading historical data...
Loading historical data...

Documentation

Showing up to 5 results
|